Location: Bussy-Saint-Georges
(48.8410°N, 2.7017°E)
Time: 22:52:47
(UTC+00:00)

ATLAS 3B R/B - Pass Details

Date: 18 October 2021
Orbit: 989 x 1206 km, 63.8° (Epoch: 25 November)

Event Time Altitude Azimuth Distance (km) Brightness Sun altitude
Rises 18:42:07 0° 244° (WSW) 3,726 6.5 -18.6°
Reaches altitude 10° 18:44:46 10° 250° (WSW) 2,798 5.8 -19.0°
Maximum altitude 18:51:05 47° 324° (NW) 1,367 3.5 -20.0°
Drops below altitude 10° 18:57:45 10° 37° (NE) 2,944 4.7 -21.1°
Enters shadow 18:58:18 - 39° (NE) 3,131 4.9 -21.2°
